| time (UTC) | temp F | wind direction | speed knots | gust knots | rain 1hr in | rain 24hr in | rain mn in | humidity % | barometer mb |
| 20260507023435 | 140 | 32 | 7.0 | 8.7 | 0.00 | 0.02 | 0.02 | 1016.3 | |
| 20260507022932 | 140 | 4 | 6.1 | 7.0 | 0.00 | 0.02 | 0.02 | 1016.2 | |
| 20260507022429 | 140 | 18 | 7.0 | 7.0 | 0.00 | 0.02 | 0.02 | 1016.3 | |
| 20260507021925 | 140 | 358 | 7.0 | 9.6 | 0.00 | 0.02 | 0.02 | 1016.4 | |
| 20260507021420 | 140 | 18 | 6.1 | 7.0 | 0.00 | 0.02 | 0.02 | 1016.2 | |
| 20260507020918 | 140 | 10 | 6.1 | 7.0 | 0.00 | 0.02 | 0.02 | 1016.0 | |
| 20260507020414 | 140 | 358 | 6.1 | 7.8 | 0.00 | 0.02 | 0.02 | 1015.8 | |
| 20260507015912 | 140 | 1 | 7.8 | 8.7 | 0.00 | 0.02 | 0.02 | 1015.8 | |
| 20260507015410 | 140 | 5 | 7.8 | 9.6 | 0.00 | 0.02 | 0.02 | 1015.8 | |
| 20260507014907 | 140 | 5 | 11.3 | 13.0 | 0.00 | 0.02 | 0.02 | 1015.7 | |
| 20260507014403 | 140 | 3 | 1.7 | 4.3 | 0.00 | 0.02 | 0.02 | 1015.8 | |
| 20260507013859 | 140 | 6 | 5.2 | 6.1 | 0.00 | 0.02 | 0.02 | 1015.6 | |
| 20260507013356 | 140 | 350 | 6.1 | 7.0 | 0.00 | 0.02 | 0.02 | 1015.6 | |
| 20260507012854 | 140 | 349 | 6.1 | 7.0 | 0.00 | 0.02 | 0.02 | 1015.2 | |
| 20260507012350 | 140 | 11 | 7.0 | 7.8 | 0.00 | 0.02 | 0.02 | 1015.2 | |
| 20260507011847 | 140 | 22 | 7.0 | 7.8 | 0.00 | 0.02 | 0.02 | 1015.1 | |
| 20260507011344 | 140 | 20 | 7.0 | 8.7 | 0.00 | 0.02 | 0.02 | 1014.9 | |
| 20260507010844 | 140 | 319 | 6.1 | 7.0 | 0.00 | 0.02 | 0.02 | 1014.8 | |
| 20260507010339 | 140 | 8 | 4.3 | 5.2 | 0.00 | 0.02 | 0.02 | 1014.4 | |
| 20260507005837 | 140 | 43 | 6.1 | 7.0 | 0.00 | 0.02 | 0.02 | 1014.8 | |
| 20260507005333 | 140 | 354 | 6.1 | 7.8 | 0.00 | 0.02 | 0.02 | 1014.6 | |
| 20260507004831 | 140 | 6 | 4.3 | 6.1 | 0.00 | 0.02 | 0.02 | 1014.7 | |
| 20260507004328 | 140 | 340 | 7.0 | 7.8 | 0.00 | 0.02 | 0.02 | 1014.7 | |
| 20260507003825 | 140 | 11 | 6.1 | 7.8 | 0.00 | 0.02 | 0.02 | 1014.4 | |
| 20260507003321 | 140 | 12 | 7.0 | 8.7 | 0.00 | 0.02 | 0.02 | 1014.2 | |
| 20260507002815 | 140 | 1 | 6.1 | 7.0 | 0.00 | 0.02 | 0.02 | 1014.1 | |
| 20260507002312 | 140 | 336 | 7.8 | 9.6 | 0.00 | 0.02 | 0.02 | 1014.0 | |
| 20260507001809 | 140 | 5 | 4.3 | 7.0 | 0.00 | 0.02 | 0.02 | 1014.0 | |
| 20260507001306 | 140 | 10 | 6.1 | 7.0 | 0.00 | 0.02 | 0.02 | 1014.1 | |
| 20260507000802 | 140 | 359 | 4.3 | 5.2 | 0.00 | 0.02 | 0.02 | 1013.9 | |
| 20260507000259 | 140 | 9 | 9.6 | 11.3 | 0.00 | 0.02 | 0.02 | 1013.9 | |
| 20260506235755 | 140 | 22 | 6.1 | 7.0 | 0.00 | 0.02 | 0.02 | 1014.0 | |
| 20260506235251 | 140 | 16 | 5.2 | 7.8 | 0.00 | 0.02 | 0.02 | 1014.0 | |
| 20260506234748 | 140 | 1 | 4.3 | 6.1 | 0.00 | 0.02 | 0.02 | 1014.0 | |
| 20260506234245 | 140 | 21 | 4.3 | 7.0 | 0.00 | 0.02 | 0.02 | 1013.8 | |
| 20260506233743 | 140 | 38 | 7.8 | 7.8 | 0.00 | 0.02 | 0.02 | 1013.7 | |
| 20260506233239 | 140 | 42 | 7.0 | 7.8 | 0.00 | 0.02 | 0.02 | 1013.6 | |
| 20260506232735 | 140 | 57 | 2.6 | 4.3 | 0.00 | 0.02 | 0.02 | 1013.4 | |
| 20260506232230 | 140 | 19 | 7.8 | 8.7 | 0.00 | 0.02 | 0.02 | 1013.5 | |
| 20260506231728 | 140 | 9 | 6.1 | 6.1 | 0.00 | 0.02 | 0.02 | 1013.5 | |
| 20260506231226 | 140 | 340 | 4.3 | 5.2 | 0.00 | 0.02 | 0.02 | 1013.6 | |
| 20260506230723 | 140 | 21 | 7.0 | 9.6 | 0.00 | 0.02 | 0.02 | 1013.4 | |
| 20260506230219 | 140 | 38 | 7.0 | 7.8 | 0.00 | 0.02 | 0.02 | 1013.4 | |
| 20260506225716 | 140 | 39 | 7.8 | 12.2 | 0.00 | 0.02 | 0.02 | 1013.5 | |
| 20260506225213 | 140 | 338 | 7.0 | 7.0 | 0.00 | 0.02 | 0.02 | 1013.3 | |
| 20260506224709 | 140 | 338 | 5.2 | 7.0 | 0.00 | 0.02 | 0.02 | 1013.4 | |
| 20260506224207 | 140 | 309 | 5.2 | 7.0 | 0.00 | 0.02 | 0.02 | 1013.4 | |
| 20260506223703 | 140 | 14 | 6.1 | 7.0 | 0.00 | 0.02 | 0.02 | 1013.3 | |
| 20260506223158 | 140 | 0 | 9.6 | 11.3 | 0.00 | 0.02 | 0.02 | 1013.2 | |
| 20260506222656 | 140 | 17 | 12.2 | 13.9 | 0.00 | 0.02 | 0.02 | 1013.1 | |
| 20260506222151 | 140 | 8 | 7.0 | 7.8 | 0.00 | 0.02 | 0.02 | 1013.3 | |
| 20260506221650 | 140 | 0 | 10.4 | 12.2 | 0.00 | 0.02 | 0.02 | 1013.2 | |
| 20260506221147 | 140 | 16 | 7.8 | 9.6 | 0.00 | 0.02 | 0.02 | 1013.5 | |
| 20260506220644 | 140 | 344 | 4.3 | 7.0 | 0.00 | 0.02 | 0.02 | 1013.1 | |
| 20260506220139 | 140 | 331 | 2.6 | 5.2 | 0.00 | 0.02 | 0.02 | 1013.0 | |
| 20260506215636 | 140 | 45 | 1.7 | 2.6 | 0.00 | 0.02 | 0.02 | 1013.1 | |
| 20260506215131 | 140 | 350 | 3.5 | 5.2 | 0.00 | 0.02 | 0.02 | 1012.9 | |
| 20260506214628 | 140 | 12 | 7.0 | 7.8 | 0.00 | 0.02 | 0.02 | 1013.3 | |
| 20260506214126 | 140 | 331 | 6.1 | 7.0 | 0.00 | 0.02 | 0.02 | 1013.1 | |
| 20260506213624 | 140 | 23 | 8.7 | 9.6 | 0.00 | 0.02 | 0.02 | 1013.2 | |
| 20260506213121 | 140 | 342 | 0.9 | 1.7 | 0.00 | 0.02 | 0.02 | 1013.4 | |
| 20260506212618 | 140 | 62 | 5.2 | 6.1 | 0.00 | 0.02 | 0.02 | 1013.1 | |
| 20260506212113 | 140 | 60 | 4.3 | 5.2 | 0.00 | 0.02 | 0.02 | 1013.3 | |
| 20260506211609 | 140 | 66 | 1.7 | 2.6 | 0.00 | 0.02 | 0.02 | 1013.4 | |
| 20260506211106 | 140 | 113 | 0.0 | 0.0 | 0.00 | 0.02 | 0.02 | 1013.6 | |
| 20260506210603 | 140 | 351 | 0.9 | 1.7 | 0.00 | 0.02 | 0.02 | 1013.5 | |
| 20260506210059 | 140 | 309 | 1.7 | 2.6 | 0.00 | 0.02 | 0.02 | 1013.7 | |
| 20260506205555 | 140 | 27 | 0.9 | 1.7 | 0.00 | 0.02 | 0.02 | 1013.6 | |
| 20260506205045 | 140 | 5 | 7.0 | 8.7 | 0.00 | 0.02 | 0.02 | 1013.6 | |
| 20260506204543 | 140 | 32 | 0.0 | 0.0 | 0.00 | 0.02 | 0.02 | 1013.6 | |
| 20260506204040 | 140 | 349 | 0.0 | 1.7 | 0.00 | 0.02 | 0.02 | 1013.9 | |
| 20260506203539 | 140 | 1 | 3.5 | 7.0 | 0.00 | 0.02 | 0.02 | 1013.9 | |
| 20260506203034 | 140 | 344 | 2.6 | 5.2 | 0.00 | 0.02 | 0.02 | 1013.9 | |
| 20260506202532 | 140 | 5 | 4.3 | 5.2 | 0.00 | 0.02 | 0.02 | 1013.9 | |
| 20260506202028 | 140 | 358 | 3.5 | 7.0 | 0.00 | 0.02 | 0.02 | 1013.7 | |
| 20260506201526 | 140 | 310 | 0.9 | 4.3 | 0.00 | 0.02 | 0.02 | 1014.1 | |
| 20260506201022 | 140 | 68 | 3.5 | 4.3 | 0.00 | 0.02 | 0.02 | 1014.0 | |
| 20260506200518 | 140 | 198 | 0.0 | 0.0 | 0.00 | 0.02 | 0.02 | 1014.2 | |
| 20260506200015 | 140 | 22 | 1.7 | 4.3 | 0.00 | 0.02 | 0.02 | 1014.2 | |
| 20260506195512 | 140 | 310 | 0.0 | 0.0 | 0.00 | 0.02 | 0.02 | 1014.6 | |
| 20260506195008 | 140 | 310 | 0.9 | 2.6 | 0.00 | 0.02 | 0.02 | 1014.4 | |
| 20260506194506 | 140 | 287 | 0.0 | 0.9 | 0.00 | 0.02 | 0.02 | 1014.7 | |
| 20260506194002 | 140 | 307 | 0.0 | 0.0 | 0.00 | 0.02 | 0.02 | 1014.4 | |
| 20260506193500 | 140 | 20 | 0.0 | 0.9 | 0.00 | 0.02 | 0.02 | 1014.7 | |
| 20260506192956 | 140 | 21 | 0.0 | 0.0 | 0.00 | 0.02 | 0.02 | 1014.4 | |
| 20260506192453 | 140 | 310 | 0.0 | 0.0 | 0.00 | 0.02 | 0.02 | 1014.9 | |
| 20260506191944 | 140 | 27 | 0.0 | 0.0 | 0.00 | 0.02 | 0.02 | 1015.0 | |
| 20260506191441 | 140 | 49 | 0.0 | 0.0 | 0.00 | 0.02 | 0.02 | 1015.2 | |
| 20260506190937 | 140 | 34 | 0.9 | 0.9 | 0.00 | 0.02 | 0.02 | 1014.9 | |
| 20260506190434 | 140 | 14 | 4.3 | 5.2 | 0.00 | 0.02 | 0.02 | 1015.2 | |
| 20260506185931 | 140 | 355 | 3.5 | 4.3 | 0.00 | 0.02 | 0.02 | 1015.0 | |
| 20260506185428 | 140 | 313 | 2.6 | 2.6 | 0.00 | 0.02 | 0.02 | 1015.5 | |
| 20260506184925 | 140 | 16 | 6.1 | 7.0 | 0.00 | 0.02 | 0.02 | 1015.3 | |
| 20260506184422 | 140 | 317 | 2.6 | 2.6 | 0.00 | 0.02 | 0.02 | 1015.2 | |
| 20260506183919 | 140 | 321 | 3.5 | 5.2 | 0.00 | 0.02 | 0.02 | 1014.9 | |
| 20260506183414 | 140 | 275 | 7.8 | 8.7 | 0.00 | 0.02 | 0.02 | 1014.9 | |
| 20260506182912 | 140 | 11 | 8.7 | 11.3 | 0.00 | 0.02 | 0.02 | 1014.8 | |
| 20260506182409 | 140 | 359 | 2.6 | 4.3 | 0.00 | 0.02 | 0.02 | 1015.0 | |
| 20260506181907 | 140 | 15 | 7.8 | 9.6 | 0.00 | 0.02 | 0.02 | 1015.0 | |
| 20260506181404 | 140 | 273 | 2.6 | 5.2 | 0.00 | 0.02 | 0.02 | 1014.8 | |
| 20260506180901 | 140 | 347 | 4.3 | 7.8 | 0.00 | 0.02 | 0.02 | 1015.1 | |
| 20260506180357 | 140 | 22 | 6.1 | 7.0 | 0.00 | 0.02 | 0.02 | 1014.9 | |
| 20260506175854 | 140 | 16 | 7.0 | 9.6 | 0.00 | 0.02 | 0.02 | 1014.8 | |
| 20260506175350 | 140 | 9 | 7.8 | 9.6 | 0.00 | 0.02 | 0.02 | 1014.9 | |
| 20260506174847 | 140 | 14 | 9.6 | 12.2 | 0.00 | 0.02 | 0.02 | 1015.2 | |
| 20260506174345 | 140 | 8 | 7.0 | 7.8 | 0.00 | 0.02 | 0.02 | 1015.1 | |
| 20260506173843 | 140 | 349 | 5.2 | 7.8 | 0.00 | 0.02 | 0.02 | 1015.2 | |
| 20260506173339 | 140 | 330 | 7.8 | 8.7 | 0.00 | 0.02 | 0.02 | 1015.6 | |
| 20260506172836 | 140 | 344 | 5.2 | 7.0 | 0.00 | 0.02 | 0.02 | 1015.4 | |
| 20260506172332 | 140 | 358 | 8.7 | 9.6 | 0.00 | 0.02 | 0.02 | 1015.4 | |
| 20260506171824 | 140 | 18 | 7.0 | 7.8 | 0.00 | 0.02 | 0.02 | 1015.4 | |
| 20260506171321 | 140 | 36 | 5.2 | 7.8 | 0.00 | 0.02 | 0.02 | 1015.2 | |
| 20260506170819 | 140 | 344 | 7.8 | 8.7 | 0.00 | 0.02 | 0.02 | 1015.0 | |
| 20260506170314 | 140 | 1 | 7.0 | 7.8 | 0.00 | 0.02 | 0.02 | 1015.4 | |
| 20260506165814 | 140 | 359 | 10.4 | 11.3 | 0.00 | 0.02 | 0.02 | 1015.1 | |
| 20260506165311 | 140 | 14 | 8.7 | 11.3 | 0.00 | 0.02 | 0.02 | 1014.9 | |
| 20260506164808 | 140 | 11 | 9.6 | 11.3 | 0.00 | 0.02 | 0.02 | 1014.7 | |
| 20260506164304 | 140 | 1 | 10.4 | 13.0 | 0.00 | 0.02 | 0.02 | 1014.8 | |
| 20260506163801 | 140 | 359 | 8.7 | 12.2 | 0.00 | 0.02 | 0.02 | 1015.0 | |
| 20260506163256 | 140 | 352 | 5.2 | 6.1 | 0.00 | 0.02 | 0.02 | 1015.2 | |
| 20260506162752 | 140 | 25 | 9.6 | 13.0 | 0.00 | 0.02 | 0.02 | 1015.2 | |
| 20260506162250 | 140 | 47 | 3.5 | 4.3 | 0.00 | 0.02 | 0.02 | 1015.0 | |
| 20260506161747 | 140 | 343 | 7.0 | 9.6 | 0.00 | 0.02 | 0.02 | 1014.9 | |
| 20260506161244 | 140 | 21 | 7.8 | 8.7 | 0.00 | 0.02 | 0.02 | 1015.1 | |
| 20260506160741 | 140 | 352 | 8.7 | 9.6 | 0.00 | 0.02 | 0.02 | 1014.8 | |
| 20260506160238 | 140 | 11 | 8.7 | 9.6 | 0.00 | 0.02 | 0.02 | 1014.6 | |
| 20260506155737 | 140 | 8 | 7.8 | 9.6 | 0.00 | 0.02 | 0.02 | 1015.1 | |
| 20260506155233 | 140 | 340 | 8.7 | 11.3 | 0.00 | 0.02 | 0.02 | 1014.9 | |
| 20260506153341 | 140 | 10 | 7.8 | 9.6 | 0.00 | 0.02 | 0.02 | 1014.0 | |
| 20260506152837 | 140 | 6 | 7.8 | 11.3 | 0.00 | 0.02 | 0.02 | 1014.4 | |
| 20260506152335 | 140 | 343 | 6.1 | 7.0 | 0.00 | 0.02 | 0.02 | 1014.5 | |
| 20260506151834 | 140 | 10 | 6.1 | 8.7 | 0.00 | 0.02 | 0.02 | 1014.4 | |
| 20260506151330 | 140 | 357 | 8.7 | 11.3 | 0.00 | 0.02 | 0.02 | 1014.5 | |
| 20260506150827 | 140 | 327 | 6.1 | 7.0 | 0.00 | 0.02 | 0.02 | 1014.9 | |
| 20260506150324 | 140 | 2 | 6.1 | 7.0 | 0.00 | 0.02 | 0.02 | 1014.8 | |
| 20260506145821 | 140 | 25 | 1.7 | 1.7 | 0.07 | 0.02 | 0.02 | 1015.1 | |
| 20260506145317 | 140 | 58 | 0.0 | 0.0 | 0.07 | 0.02 | 0.02 | 1015.4 | |
| 20260506144815 | 140 | 11 | 7.0 | 8.7 | 0.00 | 0.01 | 0.01 | 1015.4 | |
| 20260506144311 | 140 | 339 | 10.4 | 12.2 | 0.07 | 0.01 | 0.01 | 1014.7 | |
| 20260506143810 | 140 | 317 | 3.5 | 4.3 | 0.00 | 0.00 | 0.00 | 1016.7 | |
| 20260506143306 | 140 | 296 | 1.7 | 2.6 | 0.00 | 0.00 | 0.00 | 1017.1 | |
| 20260506142804 | 140 | 320 | 0.9 | 2.6 | 0.00 | 0.00 | 0.00 | 1016.6 | |
| 20260506142305 | 140 | 249 | 0.0 | 0.0 | 0.00 | 0.00 | 0.00 | 1016.4 | |
| 20260506141800 | 140 | 236 | 0.0 | 0.0 | 0.00 | 0.00 | 0.00 | 1016.4 | |
| 20260506141258 | 140 | 288 | 3.5 | 6.1 | 0.00 | 0.00 | 0.00 | 1015.6 | |
| 20260506140755 | 140 | 337 | 1.7 | 1.7 | 0.00 | 0.00 | 0.00 | 1015.0 | |
| 20260506140252 | 140 | 6 | 10.4 | 13.0 | 0.00 | 0.00 | 0.00 | 1013.5 | |
| 20260506135749 | 140 | 22 | 8.7 | 9.6 | 0.00 | 0.00 | 0.00 | 1014.2 | |
| 20260506135245 | 140 | 353 | 7.0 | 7.8 | 0.00 | 0.00 | 0.00 | 1014.8 | |
| 20260506134742 | 140 | 347 | 9.6 | 13.0 | 0.00 | 0.00 | 0.00 | 1014.7 | |
| 20260506134239 | 140 | 11 | 12.2 | 15.6 | 0.00 | 0.00 | 0.00 | 1014.7 | |
| 20260506133736 | 140 | 9 | 7.0 | 8.7 | 0.00 | 0.00 | 0.00 | 1015.1 | |
| 20260506133232 | 140 | 342 | 7.0 | 8.7 | 0.00 | 0.00 | 0.00 | 1015.5 | |
| 20260506132729 | 140 | 354 | 2.6 | 4.3 | 0.00 | 0.00 | 0.00 | 1015.2 | |
| 20260506132227 | 140 | 304 | 2.6 | 2.6 | 0.00 | 0.00 | 0.00 | 1015.6 | |
| 20260506131725 | 140 | 10 | 9.6 | 13.0 | 0.00 | 0.00 | 0.00 | 1015.6 | |
| 20260506131220 | 140 | 7 | 4.3 | 8.7 | 0.00 | 0.00 | 0.00 | 1014.5 | |
| 20260506130717 | 140 | 343 | 7.0 | 7.0 | 0.00 | 0.00 | 0.00 | 1014.0 | |
| 20260506130214 | 140 | 25 | 7.8 | 8.7 | 0.00 | 0.00 | 0.00 | 1014.1 | |
| 20260506125712 | 140 | 26 | 4.3 | 6.1 | 0.00 | 0.00 | 0.00 | 1014.0 | |
| 20260506125210 | 140 | 10 | 7.0 | 9.6 | 0.00 | 0.00 | 0.00 | 1013.8 | |
| 20260506124708 | 140 | 10 | 7.8 | 9.6 | 0.00 | 0.00 | 0.00 | 1013.7 | |
| 20260506124206 | 140 | 358 | 7.0 | 7.8 | 0.00 | 0.00 | 0.00 | 1013.3 | |
| 20260506123703 | 140 | 16 | 6.1 | 7.8 | 0.00 | 0.00 | 0.00 | 1013.1 | |
| 20260506123202 | 140 | 346 | 10.4 | 17.4 | 0.00 | 0.00 | 0.00 | 1013.3 | |
| 20260506122658 | 140 | 17 | 7.8 | 8.7 | 0.00 | 0.00 | 0.00 | 1013.1 | |
| 20260506122155 | 140 | 356 | 9.6 | 12.2 | 0.00 | 0.00 | 0.00 | 1013.2 | |
| 20260506121653 | 140 | 27 | 5.2 | 7.0 | 0.00 | 0.00 | 0.00 | 1013.3 | |
| 20260506121149 | 140 | 343 | 6.1 | 7.0 | 0.00 | 0.00 | 0.00 | 1013.2 | |
| 20260506120647 | 140 | 27 | 10.4 | 12.2 | 0.00 | 0.00 | 0.00 | 1013.2 | |
| 20260506120144 | 140 | 17 | 10.4 | 12.2 | 0.00 | 0.00 | 0.00 | 1013.1 | |
| 20260506115643 | 140 | 347 | 6.1 | 7.8 | 0.00 | 0.00 | 0.00 | 1012.7 | |
| 20260506115140 | 140 | 285 | 5.2 | 7.0 | 0.00 | 0.00 | 0.00 | 1013.1 | |
| 20260506114637 | 140 | 5 | 8.7 | 11.3 | 0.00 | 0.00 | 0.00 | 1013.2 | |
| 20260506114135 | 140 | 352 | 6.1 | 8.7 | 0.00 | 0.00 | 0.00 | 1012.9 | |
| 20260506113634 | 140 | 6 | 4.3 | 5.2 | 0.00 | 0.00 | 0.00 | 1013.2 | |
| 20260506113130 | 140 | 318 | 8.7 | 12.2 | 0.00 | 0.00 | 0.00 | 1013.2 | |
| 20260506112626 | 140 | 342 | 7.0 | 8.7 | 0.00 | 0.00 | 0.00 | 1012.8 | |
| 20260506112124 | 140 | 335 | 7.0 | 9.6 | 0.00 | 0.00 | 0.00 | 1012.7 | |
| 20260506111622 | 140 | 2 | 6.1 | 8.7 | 0.00 | 0.00 | 0.00 | 1012.6 | |
| 20260506111119 | 140 | 318 | 5.2 | 7.0 | 0.00 | 0.00 | 0.00 | 1012.6 | |
| 20260506110617 | 140 | 333 | 6.1 | 8.7 | 0.00 | 0.00 | 0.00 | 1012.3 | |
| 20260506110114 | 140 | 317 | 3.5 | 5.2 | 0.00 | 0.00 | 0.00 | 1012.4 | |
| 20260506105610 | 140 | 33 | 5.2 | 7.0 | 0.00 | 0.00 | 0.00 | 1012.1 | |
| 20260506105107 | 140 | 341 | 6.1 | 8.7 | 0.00 | 0.00 | 0.00 | 1012.2 | |
| 20260506104606 | 140 | 311 | 7.8 | 9.6 | 0.00 | 0.00 | 0.00 | 1011.8 | |
| 20260506104103 | 140 | 17 | 5.2 | 7.0 | 0.00 | 0.00 | 0.00 | 1011.8 | |
| 20260506103600 | 140 | 337 | 9.6 | 11.3 | 0.00 | 0.00 | 0.00 | 1011.7 | |
| 20260506103056 | 140 | 320 | 8.7 | 12.2 | 0.00 | 0.00 | 0.00 | 1011.9 | |
| 20260506102555 | 140 | 302 | 6.1 | 7.0 | 0.00 | 0.00 | 0.00 | 1011.8 | |
| 20260506102052 | 140 | 348 | 9.6 | 11.3 | 0.00 | 0.00 | 0.00 | 1011.7 | |
| 20260506101548 | 140 | 335 | 7.8 | 11.3 | 0.00 | 0.00 | 0.00 | 1011.6 | |
| 20260506101046 | 140 | 313 | 7.0 | 8.7 | 0.00 | 0.00 | 0.00 | 1011.6 | |
| 20260506100544 | 140 | 316 | 4.3 | 6.1 | 0.00 | 0.00 | 0.00 | 1011.3 | |
| 20260506100041 | 140 | 303 | 7.0 | 8.7 | 0.00 | 0.00 | 0.00 | 1011.1 | |
| 20260506095540 | 140 | 338 | 7.0 | 7.8 | 0.00 | 0.00 | 0.00 | 1011.3 | |
| 20260506095036 | 140 | 12 | 3.5 | 6.1 | 0.00 | 0.00 | 0.00 | 1011.0 | |
| 20260506094534 | 140 | 6 | 6.1 | 7.8 | 0.00 | 0.00 | 0.00 | 1011.1 | |
| 20260506094032 | 140 | 340 | 6.1 | 7.8 | 0.00 | 0.00 | 0.00 | 1010.8 | |
| 20260506093530 | 140 | 339 | 7.0 | 7.8 | 0.00 | 0.00 | 0.00 | 1010.5 | |
| 20260506093027 | 140 | 2 | 7.8 | 8.7 | 0.00 | 0.00 | 0.00 | 1010.6 | |
| 20260506092525 | 140 | 351 | 6.1 | 7.0 | 0.00 | 0.00 | 0.00 | 1010.6 | |
| 20260506092021 | 140 | 356 | 6.1 | 7.0 | 0.00 | 0.00 | 0.00 | 1010.6 | |
| 20260506091520 | 140 | 358 | 7.8 | 8.7 | 0.00 | 0.00 | 0.00 | 1010.7 | |
| 20260506091016 | 140 | 315 | 5.2 | 7.0 | 0.00 | 0.00 | 0.00 | 1010.8 | |
| 20260506090514 | 140 | 327 | 4.3 | 4.3 | 0.00 | 0.00 | 0.00 | 1010.8 | |
| 20260506090010 | 140 | 356 | 3.5 | 4.3 | 0.00 | 0.00 | 0.00 | 1010.4 | |
| 20260506085507 | 140 | 19 | 4.3 | 5.2 | 0.00 | 0.00 | 0.00 | 1010.5 | |
| 20260506085004 | 140 | 9 | 4.3 | 5.2 | 0.00 | 0.00 | 0.00 | 1010.3 | |
| 20260506084501 | 140 | 312 | 2.6 | 2.6 | 0.00 | 0.00 | 0.00 | 1010.7 | |
| 20260506083957 | 140 | 6 | 6.1 | 7.8 | 0.00 | 0.00 | 0.00 | 1010.6 | |
| 20260506083454 | 140 | 347 | 4.3 | 6.1 | 0.00 | 0.00 | 0.00 | 1010.4 | |
| 20260506082951 | 140 | 352 | 2.6 | 4.3 | 0.00 | 0.00 | 0.00 | 1010.4 | |
| 20260506082448 | 140 | 332 | 4.3 | 5.2 | 0.00 | 0.00 | 0.00 | 1010.3 | |
| 20260506081944 | 140 | 327 | 0.9 | 5.2 | 0.00 | 0.00 | 0.00 | 1010.2 | |
| 20260506081443 | 140 | 16 | 5.2 | 7.0 | 0.00 | 0.00 | 0.00 | 1010.2 | |
| 20260506080939 | 140 | 8 | 7.0 | 7.8 | 0.00 | 0.00 | 0.00 | 1010.2 | |
| 20260506080436 | 140 | 12 | 9.6 | 11.3 | 0.00 | 0.00 | 0.00 | 1010.0 | |
| 20260506073420 | 140 | 324 | 2.6 | 4.3 | 0.00 | 0.00 | 0.00 | 1010.0 | |
| 20260506072918 | 140 | 22 | 7.0 | 8.7 | 0.00 | 0.00 | 0.00 | 1010.1 | |
| 20260506072414 | 140 | 322 | 5.2 | 5.2 | 0.00 | 0.00 | 0.00 | 1010.5 | |
| 20260506071912 | 140 | 350 | 4.3 | 5.2 | 0.00 | 0.00 | 0.00 | 1010.1 | |
| 20260506071410 | 140 | 329 | 4.3 | 5.2 | 0.00 | 0.00 | 0.00 | 1010.5 | |
| 20260506070907 | 140 | 328 | 4.3 | 5.2 | 0.00 | 0.00 | 0.00 | 1010.3 | |
| 20260506070403 | 140 | 348 | 4.3 | 5.2 | 0.00 | 0.00 | 0.00 | 1010.1 | |
| 20260506062341 | 140 | 41 | 4.3 | 5.2 | 0.00 | 0.00 | 0.00 | 1009.2 | |
| 20260506061837 | 140 | 17 | 7.8 | 9.6 | 0.00 | 0.00 | 0.00 | 1009.0 | |
| 20260506061333 | 140 | 28 | 0.0 | 0.0 | 0.00 | 0.00 | 0.00 | 1009.1 | |
| 20260506060832 | 140 | 40 | 3.5 | 5.2 | 0.00 | 0.00 | 0.00 | 1009.6 | |
| 20260506060329 | 140 | 5 | 9.6 | 12.2 | 0.00 | 0.00 | 0.00 | 1009.6 | |
| 20260506051301 | 140 | 13 | 11.3 | 13.0 | 0.00 | 0.00 | 0.00 | 1009.6 | |
| 20260506050759 | 140 | 18 | 11.3 | 13.0 | 0.00 | 0.00 | 0.00 | 1009.6 | |
| 20260506050256 | 140 | 12 | 9.6 | 12.2 | 0.00 | 0.00 | 0.00 | 1009.7 | |
| 20260506044747 | 140 | 1 | 4.3 | 5.2 | 0.00 | 0.00 | 0.00 | 1009.5 | |
| 20260506044244 | 140 | 30 | 6.1 | 7.8 | 0.00 | 0.00 | 0.00 | 1009.6 | |
| 20260506043742 | 140 | 10 | 7.0 | 7.8 | 0.00 | 0.00 | 0.00 | 1009.8 | |
| 20260506043239 | 140 | 16 | 7.0 | 7.8 | 0.00 | 0.00 | 0.00 | 1009.6 | |
| 20260506042737 | 140 | 310 | 6.1 | 7.8 | 0.00 | 0.00 | 0.00 | 1009.5 | |
| 20260506042236 | 140 | 318 | 7.0 | 9.6 | 0.00 | 0.00 | 0.00 | 1009.2 | |
| 20260506041734 | 140 | 354 | 6.1 | 7.0 | 0.00 | 0.00 | 0.00 | 1009.6 | |
| 20260506041230 | 140 | 351 | 7.8 | 8.7 | 0.00 | 0.00 | 0.00 | 1009.6 | |
| 20260506040728 | 140 | 316 | 5.2 | 6.1 | 0.00 | 0.00 | 0.00 | 1009.5 | |
| 20260506040225 | 140 | 19 | 8.7 | 9.6 | 0.00 | 0.00 | 0.00 | 1009.5 | |
| 20260506035721 | 140 | 3 | 8.7 | 11.3 | 0.00 | 0.00 | 0.00 | 1009.5 | |
| 20260506035218 | 140 | 358 | 6.1 | 7.8 | 0.00 | 0.00 | 0.00 | 1009.4 | |
| 20260506034715 | 140 | 44 | 4.3 | 5.2 | 0.00 | 0.00 | 0.00 | 1009.6 | |
| 20260506034213 | 140 | 348 | 10.4 | 13.0 | 0.00 | 0.00 | 0.00 | 1009.4 | |
| 20260506033710 | 140 | 342 | 6.1 | 8.7 | 0.00 | 0.00 | 0.00 | 1009.4 | |
| 20260506033207 | 140 | 345 | 13.0 | 15.6 | 0.00 | 0.00 | 0.00 | 1009.4 | |
| 20260506032703 | 140 | 8 | 11.3 | 12.2 | 0.00 | 0.00 | 0.00 | 1009.2 | |
| 20260506032201 | 140 | 23 | 6.1 | 7.8 | 0.00 | 0.00 | 0.00 | 1009.2 | |
| 20260506031657 | 140 | 308 | 4.3 | 5.2 | 0.00 | 0.00 | 0.00 | 1008.9 | |
| 20260506031155 | 140 | 19 | 11.3 | 13.0 | 0.00 | 0.00 | 0.00 | 1008.6 | |
| 20260506030653 | 140 | 35 | 6.1 | 8.7 | 0.00 | 0.00 | 0.00 | 1008.4 | |
| 20260506030149 | 140 | 357 | 9.6 | 12.2 | 0.00 | 0.00 | 0.00 | 1008.7 | |
| 20260506025646 | 140 | 18 | 7.0 | 8.7 | 0.00 | 0.00 | 0.00 | 1008.6 | |
| 20260506025142 | 140 | 4 | 9.6 | 9.6 | 0.00 | 0.00 | 0.00 | 1008.4 | |
| 20260506024640 | 140 | 356 | 9.6 | 11.3 | 0.00 | 0.00 | 0.00 | 1008.2 | |
| 20260506024136 | 140 | 316 | 5.2 | 6.1 | 0.00 | 0.00 | 0.00 | 1008.1 |